This demonstration page uses our WeatherBlox Daily Observations layout. Learn more.

Left ArrowRight Arrow

Hourly Observations for March 1, 2020

Temp ( °F °C ) Dew Point ( °F °C ) Humidity (%) Winds ( mph kmh ) Pressure ( in mb ) Visibility ( mi km ) Precip ( " mm )
12:53 am 00:53 Cloudy 32 undefined 24 -4.4 73 73 WNW 18 30 29.88 1012 10 16 N/A
1:53 am 01:53 Partly Cloudy 30 -1.1 23 -5 75 75 WNW 16 26 29.93 1014 10 16 N/A
2:53 am 02:53 Partly Cloudy 30 -1.1 23 -5 75 75 NW 20 31 29.96 1014 10 16 N/A
3:02 am 03:02 Mostly Cloudy 30 -1.1 23 -5 75 75 NW 16 26 30.02 1017 10 16 N/A
3:46 am 03:46 Partly Cloudy 29 -1.7 22 -5.6 75 75 NW 21 33 30.05 1018 10 16 N/A
3:53 am 03:53 Partly Cloudy 29 -1.7 22 -5.6 75 75 NW 16 26 29.99 1016 10 16 N/A
4:53 am 04:53 Mostly Clear 28 -2.2 22 -5.6 78 78 WNW 10 17 30.02 1017 10 16 N/A
5:15 am 05:15 Mostly Cloudy 29 -1.7 22 -5.6 75 75 NW 13 20 30.09 1019 10 16 N/A
5:53 am 05:53 Partly Cloudy 27 -2.8 20 -6.7 75 75 NNW 21 33 30.05 1018 10 16 N/A
6:53 am 06:53 Clear 25 -3.9 19 -7.2 78 78 NW 16 26 30.11 1020 10 16 N/A
7:53 am 07:53 Sunny 24 -4.4 17 -8.3 75 75 NW 14 22 30.16 1021 10 16 N/A
8:25 am 08:25 Mostly Cloudy 25 -3.9 18 -7.8 75 75 WNW 10 17 30.23 1024 10 16 N/A
8:53 am 08:53 Mostly Cloudy 26 -3.3 18 -7.8 71 71 WNW 13 20 30.19 1023 10 16 N/A
9:38 am 09:38 Partly Cloudy 27 -3 18 -8 69 69 W 12 19 30.26 1025 10 16 N/A
9:53 am 09:53 Mostly Sunny 27 -2.8 17 -8.3 66 66 WNW 13 20 30.21 1023 10 16 N/A
10:23 am 10:23 Mostly Cloudy 27 -2.8 17 -8.3 66 66 W 6 9 30.26 1025 10 16 N/A
10:53 am 10:53 Mostly Cloudy 27 -2.8 16 -8.9 63 63 W 8 13 30.22 1023 10 16 N/A
11:16 am 11:16 Partly Cloudy 30 -1.1 17 -8.3 58 58 WNW 12 19 30.23 1024 10 16 N/A
11:53 am 11:53 Sunny 31 -0.6 18 -7.8 59 59 WNW 10 17 30.20 1023 10 16 N/A
12:53 pm 12:53 Sunny 34 1.1 19 -7.2 54 54 W 13 20 30.16 1021 10 16 N/A
1:53 pm 13:53 Sunny 36 2.2 18 -7.8 48 48 WSW 9 15 30.11 1020 10 16 N/A
2:53 pm 14:53 Sunny 38 3.3 16 -8.9 41 41 SW 12 19 30.07 1018 10 16 N/A
3:53 pm 15:53 Sunny 39 3.9 15 -9.4 38 38 SW 12 19 30.01 1016 10 16 N/A
4:53 pm 16:53 Sunny 38 3.3 16 -8.9 41 41 SW 15 24 29.98 1015 10 16 N/A
5:53 pm 17:53 Sunny 34 1.1 16 -8.9 48 48 SSW 10 17 29.96 1015 10 16 N/A
6:53 pm 18:53 Clear 30 -1.1 16 -8.9 56 56 S 10 17 29.93 1013 10 16 N/A
7:53 pm 19:53 Clear 29 -1.7 17 -8.3 61 61 SSW 7 11 29.87 1012 10 16 N/A
8:53 pm 20:53 Clear 32 undefined 19 -7.2 59 59 SW 17 28 29.83 1010 10 16 N/A
9:53 pm 21:53 Clear 31 -0.6 17 -8.3 56 56 SW 15 24 29.81 1009 10 16 N/A
10:53 pm 22:53 Clear 32 undefined 16 -8.9 52 52 SW 24 39 29.75 1008 10 16 N/A
11:53 pm 23:53 Clear 30 -1.1 17 -8.3 58 58 SW 23 37 29.72 1006 10 16 N/A

Powered by AerisWeather